Location: Bathurst
(33.4193°S, 149.5775°E)
Time: 20:44:04
(UTC+11:00)

ISS - Pass Details

Date: 27 January 2021
Orbit: 417 x 422 km, 51.6° (Epoch: 28 February)

Event Time Altitude Azimuth Distance (km) Brightness Sun altitude
Exits shadow 03:54:02 28° 109° (ESE) 821 -1.8 -25.6°
Drops below altitude 10° 03:55:54 10° 124° (SE) 1,518 0.1 -25.3°
Sets 03:58:03 0° 129° (SE) 2,389 1.4 -25.0°
